Datos meteoreol�gicos.
Lugar de muestreo: Estaci�n de Fotobiolog�a Playa Uni�n (EFPU) en Playa Uni�n, Chubut, Argentina (-43.311263, -65.040969).
Datos aportados al Sistema Nacional de Datos del Mar.
Fecha,Temperatura_Max,Humedad_Max,Vel.Viento_Km/h_Max,Temperatura_Min,Humedad_Min,Vel.Viento_Km/h_Min,Temperatura_Prom,Humedad_Prom,Vel.Viento_Km/h_Prom,Direcci�n_Viento
2005-01-01,32.3,83.0,35.6,18.9,24.0,0.0,23.2,48.5,16.7,ENE
2005-01-02,33.3,82.0,48.2,19.4,27.0,0.0,24.3,49.5,17.3,NNE
2005-01-03,19.8,91.0,31.0,15.3,72.0,0.0,18.1,83.9,14.9,SSE
2005-01-04,33.5,93.0,34.6,13.7,29.0,0.0,21.2,72.2,11.8,ENE
2005-01-05,27.1,68.0,49.0,18.4,15.0,7.2,23.1,32.8,25.1,W
2005-01-06,25.3,56.0,36.4,10.7,20.0,5.8,19.5,29.1,20.9,W
2005-01-07,30.4,73.0,37.8,13.0,19.0,0.0,22.2,41.3,18.7,WNW
2005-01-08,31.6,93.0,63.7,15.4,20.0,0.0,23.0,44.1,17.3,WNW
2005-01-09,24.4,70.0,36.4,13.0,25.0,0.0,18.8,37.1,13.3,ENE
2005-01-10,35.7,68.0,75.6,14.9,14.0,0.0,24.3,36.2,13.3,NNW
2005-01-11,32.2,83.0,42.5,18.4,18.0,4.3,27.2,32.4,22.1,WNW
2005-01-12,26.2,80.0,70.2,14.8,17.0,6.5,19.0,40.3,27.5,WSW
2005-01-13,30.7,75.0,33.8,12.9,20.0,7.2,20.8,43.4,16.8,ENE
2005-01-14,24.3,84.0,40.0,15.4,27.0,0.0,19.9,48.7,14.5,WSW
2005-01-15,25.1,82.0,35.6,14.2,22.0,0.0,19.1,53.4,8.2,ENE
2005-01-16,27.8,55.0,18.7,18.1,20.0,0.0,21.9,37.9,0.7,ENE
2005-01-17,25.0,70.0,46.8,14.8,21.0,0.0,19.2,40.3,10.2,WSW
2005-01-18,30.5,90.0,49.0,14.1,18.0,0.0,20.4,53.2,8.5,NNW
2005-01-19,18.3,75.0,0.0,14.3,45.0,0.0,16.2,62.5,0.0,SSW
2005-01-20,31.0,90.0,46.8,8.3,20.0,0.0,21.0,46.2,21.4,NNE
2005-01-21,32.6,85.0,40.0,16.6,18.0,0.0,23.7,40.9,16.4,WNW
2005-01-22,26.9,55.0,51.5,13.2,20.0,11.9,20.3,32.8,27.8,W
2005-01-23,28.7,78.0,57.6,16.0,21.0,0.0,21.1,39.2,16.0,WNW
2005-01-24,18.3,54.0,57.6,11.2,25.0,0.0,14.7,35.9,10.7,SW
2005-01-25,22.0,77.0,29.5,9.1,34.0,0.0,15.8,49.5,12.4,E
2005-01-26,33.7,83.0,56.9,13.2,14.0,0.0,24.3,36.6,23.5,NNW
2005-01-27,27.6,67.0,41.4,18.7,22.0,0.0,22.8,37.1,12.1,ENE
2005-01-28,27.0,92.0,35.6,14.5,29.0,0.0,20.6,52.5,4.0,ENE
2005-01-29,20.4,93.0,40.7,12.9,27.0,0.0,15.4,56.3,17.1,SSE
2005-01-30,19.5,94.0,34.6,8.1,45.0,0.0,12.9,74.4,5.3,SE
2005-01-31,23.7,96.0,30.2,6.2,29.0,0.0,15.0,59.8,10.1,ENE
2005-02-01,25.3,81.0,26.3,8.7,30.0,0.0,17.2,58.7,14.0,ENE
2005-02-02,34.6,92.0,35.6,12.9,14.0,0.0,20.7,52.3,18.2,WNW
2005-02-03,37.2,95.0,29.5,12.2,13.0,0.0,21.3,69.9,11.5,S
2005-02-04,21.8,91.0,0.0,17.3,77.0,0.0,19.0,88.1,0.0,S
2005-02-05,25.6,91.0,0.0,17.3,66.0,0.0,20.0,84.3,0.0,S
2005-02-06,34.6,89.0,22.0,17.5,32.0,0.0,21.8,77.7,7.3,S
2005-02-07,21.9,90.0,0.0,19.3,87.0,0.0,19.9,88.0,0.0,S
2005-02-11,27.4,95.0,41.4,14.7,41.0,0.0,21.0,69.4,9.3,NE
2005-02-12,29.1,93.0,59.8,17.6,40.0,0.0,22.8,70.7,19.3,NNE
2005-02-13,28.8,91.0,0.0,17.4,34.0,0.0,21.2,72.6,0.0,SSE
2005-02-14,20.7,90.0,0.0,15.4,62.0,0.0,17.6,80.6,0.0,SE
2005-02-15,29.8,94.0,27.7,14.7,43.0,0.0,20.9,78.0,6.8,NE
2005-02-16,30.9,91.0,27.7,17.8,23.0,0.0,22.7,67.8,8.7,ENE
2005-02-17,26.0,93.0,24.8,18.1,67.0,0.0,20.8,86.8,1.5,SSE
2005-02-18,22.0,91.0,36.4,17.9,67.0,0.0,18.6,85.0,10.3,ENE
2005-02-19,20.3,89.0,0.0,18.5,86.0,0.0,18.9,87.5,0.0,SSE
2005-02-20,19.4,91.0,0.0,16.7,86.0,0.0,18.1,89.2,0.0,ENE
2005-02-21,30.1,91.0,46.1,15.7,49.0,0.0,22.2,76.7,12.7,NE
2005-02-22,30.3,92.0,24.1,18.3,32.0,0.0,20.9,82.3,2.4,ENE
2005-02-23,26.3,93.0,33.1,16.1,24.0,0.0,19.5,56.0,7.1,ENE
2005-02-24,24.8,88.0,0.0,15.2,31.0,0.0,18.8,58.7,0.0,ENE
2005-02-25,24.3,92.0,0.0,13.5,32.0,0.0,18.4,59.6,0.0,ENE
2005-02-26,31.4,80.0,27.7,14.8,22.0,0.0,21.1,43.1,2.8,ENE
2005-02-27,22.6,90.0,48.2,14.9,35.0,0.0,17.5,54.3,6.3,S
2005-02-28,20.7,86.0,30.2,9.1,45.0,0.0,15.4,64.8,7.8,E
2005-03-01,30.3,87.0,50.0,13.0,19.0,0.0,21.3,49.5,13.4,NNE
2005-03-02,33.9,77.0,42.5,18.3,20.0,0.0,23.8,47.7,16.6,NNE
2005-03-03,32.0,93.0,26.3,15.9,33.0,0.0,22.8,62.9,7.3,NNW
2005-03-04,26.7,91.0,0.0,18.4,18.0,0.0,23.1,39.1,0.0,W
2005-03-05,27.3,64.0,38.5,13.7,20.0,0.0,20.1,32.8,20.3,WNW
2005-03-06,28.7,91.0,33.1,11.9,19.0,0.0,20.7,46.9,16.2,WNW
2005-03-07,22.2,44.0,43.2,11.7,22.0,0.0,17.2,29.2,18.2,WNW
2005-03-08,15.9,66.0,46.1,8.5,30.0,0.0,12.5,45.8,14.2,W
2005-03-09,24.1,73.0,43.9,9.5,27.0,0.0,15.6,39.7,8.2,NW
2005-03-10,26.0,35.0,61.9,19.6,20.0,18.7,23.3,24.6,38.7,W
2005-03-11,24.7,92.0,35.6,15.6,35.0,0.0,19.0,60.1,0.2,ENE
2005-03-12,29.4,84.0,46.8,12.9,28.0,0.0,21.4,50.2,14.6,WNW
2005-03-13,30.7,65.0,31.7,16.1,24.0,7.2,23.9,38.1,16.6,WNW
2005-03-14,34.0,57.0,25.6,17.4,18.0,0.0,23.5,38.3,10.3,NW
2005-03-15,30.0,64.0,35.6,20.7,19.0,0.0,26.3,27.7,17.3,WNW
2005-03-16,29.2,69.0,29.5,14.0,21.0,0.0,20.6,36.4,12.4,WNW
2005-03-17,21.9,81.0,33.8,12.7,22.0,0.0,17.7,52.2,6.7,SSE
2005-03-18,24.1,95.0,34.6,7.8,23.0,0.0,16.1,51.1,13.5,WNW
2005-03-19,26.9,90.0,27.0,12.7,25.0,0.0,17.7,47.5,7.7,ENE
2005-03-20,22.7,94.0,58.3,10.9,32.0,0.0,16.1,69.8,14.6,WSW
2005-03-21,17.2,86.0,46.8,8.9,32.0,0.0,13.5,50.9,3.8,SW
2005-03-22,29.6,83.0,39.2,5.9,13.0,0.0,18.2,39.7,9.8,NNW
2005-03-23,21.5,92.0,27.7,15.7,28.0,0.0,17.8,65.0,9.5,SSW
2005-03-24,26.1,94.0,22.7,13.4,31.0,0.0,17.7,68.6,8.2,NNE
2005-03-25,20.7,90.0,22.0,10.5,35.0,0.0,15.8,59.5,6.0,ENE
2005-03-26,27.1,94.0,23.4,12.5,29.0,0.0,17.7,81.4,4.1,S
2005-03-27,22.6,94.0,24.1,8.1,29.0,0.0,14.9,57.5,9.5,ENE
2005-03-28,24.5,91.0,49.7,10.1,21.0,0.0,16.7,53.4,13.0,WNW
2005-03-29,15.2,78.0,27.0,7.1,37.0,0.0,11.6,52.3,7.8,SW
2005-03-30,25.2,79.0,49.0,6.4,18.0,0.0,16.1,42.7,19.3,NNE
2005-03-31,19.2,89.0,20.9,12.4,28.0,0.0,16.1,53.5,3.7,S
2005-04-01,14.9,92.0,43.9,11.0,55.0,0.0,13.2,71.4,11.0,S
2005-04-02,21.1,92.0,22.7,4.5,32.0,0.0,11.9,68.8,11.4,W
2005-04-03,26.2,94.0,27.7,6.7,21.0,0.0,15.6,54.3,8.8,NNW
2005-04-04,27.3,90.0,43.9,11.0,23.0,0.0,18.8,46.4,15.5,NW
2005-04-05,21.3,38.0,34.6,10.7,24.0,0.0,15.6,30.6,7.7,WNW
2005-04-06,21.2,41.0,34.6,8.4,23.0,5.8,13.8,33.1,14.5,NW
2005-04-07,19.6,41.0,61.2,8.7,24.0,0.0,14.9,31.7,27.6,W
2005-04-08,20.1,64.0,40.7,7.7,24.0,0.0,14.5,35.6,17.8,WNW
2005-04-09,20.9,46.0,35.6,10.6,27.0,0.0,15.8,33.8,11.2,WNW
2005-04-10,21.5,92.0,43.2,12.9,25.0,0.0,15.0,51.0,10.2,NW
2005-04-11,14.0,82.0,39.2,5.3,37.0,0.0,11.9,53.2,5.7,SSW
2005-04-12,20.4,83.0,31.0,0.6,23.0,7.2,11.1,51.1,16.1,NNW
2005-04-13,22.1,87.0,22.0,6.6,25.0,0.0,13.1,56.5,9.8,NW
2005-04-14,20.1,92.0,34.6,7.5,44.0,0.0,14.9,71.6,6.7,NE
2005-04-15,20.8,84.0,25.6,9.5,26.0,0.0,14.3,55.5,7.2,WNW
2005-04-16,25.6,72.0,33.8,6.3,21.0,0.0,15.9,39.4,14.6,WNW
2005-04-17,22.7,69.0,34.6,9.1,22.0,4.3,16.4,34.6,16.1,WNW
2005-04-18,21.4,69.0,28.8,11.9,23.0,0.0,16.6,32.6,1.6,W
2005-04-19,17.9,74.0,26.3,4.0,28.0,0.0,10.2,53.8,9.4,WSW
2005-04-20,20.5,72.0,32.4,5.2,33.0,7.6,13.1,47.5,15.0,WNW
2005-04-21,22.7,71.0,18.0,9.1,31.0,0.0,13.8,51.1,7.1,WNW
2005-04-22,23.4,80.0,29.5,8.1,25.0,0.0,15.0,48.7,11.5,WNW
2005-04-23,10.2,95.0,0.0,5.1,60.0,0.0,8.2,77.6,0.0,SSE
2005-04-24,10.8,95.0,32.4,1.3,36.0,0.0,6.2,64.2,12.3,SW
2005-04-25,17.4,93.0,25.6,-0.2,24.0,5.8,7.9,56.4,14.4,NW
2005-04-26,18.9,75.0,35.3,3.1,28.0,0.0,10.1,47.0,15.4,WNW
2005-04-27,21.8,79.0,35.6,7.7,29.0,7.2,13.9,48.8,14.9,WNW
2005-04-28,21.1,75.0,21.2,8.2,27.0,0.0,14.1,46.8,7.2,WNW
2005-04-29,20.2,54.0,33.1,10.4,28.0,0.0,15.3,39.2,10.9,WNW
2005-04-30,23.5,42.0,26.3,11.5,19.0,0.0,17.2,26.1,5.0,NNW
2005-05-01,27.9,91.0,33.8,14.8,16.0,0.0,21.8,35.4,14.5,NNW
2005-05-02,17.1,91.0,20.9,12.4,71.0,0.0,14.4,84.6,2.9,E
2005-05-03,19.9,93.0,0.0,11.7,63.0,0.0,14.6,86.4,0.0,ENE
2005-05-04,13.7,94.0,33.1,4.5,57.0,0.0,10.1,78.6,10.7,SW
2005-05-05,14.4,95.0,34.6,1.3,36.0,6.5,6.6,63.0,15.5,WNW
2005-05-06,15.4,90.0,20.2,-0.2,36.0,0.0,6.3,60.4,11.3,WNW
2005-05-07,19.0,94.0,44.6,-0.8,25.0,0.0,9.6,53.0,15.9,NNW
2005-05-08,16.9,96.0,0.0,7.7,36.0,0.0,12.0,71.3,0.0,NNW
2005-05-09,19.7,93.0,48.2,8.4,48.0,0.0,14.3,72.8,6.6,NNW
2005-05-10,17.6,63.0,57.6,7.7,24.0,0.0,13.5,40.3,13.9,WNW
2005-05-11,15.7,65.0,41.4,6.8,36.0,0.0,12.3,41.7,8.6,WNW
2005-05-12,15.7,69.0,51.5,7.8,29.0,0.0,11.2,44.0,10.7,WNW
2005-05-13,15.3,65.0,28.8,3.9,30.0,0.0,9.0,44.6,11.8,NW
2005-05-14,15.4,69.0,34.6,2.1,28.0,0.0,8.7,44.5,13.2,WNW
2005-05-15,6.9,66.0,18.0,3.8,48.0,8.3,5.4,54.7,13.2,WNW
2005-05-16,15.6,39.0,0.0,15.1,34.0,0.0,15.4,36.0,0.0,NNW
2005-05-17,15.4,50.0,24.8,4.8,28.0,0.0,11.8,38.1,2.6,NW
2005-05-18,11.4,97.0,35.6,1.3,31.0,0.0,6.0,70.7,10.7,NW
2005-05-19,6.7,97.0,62.6,1.4,57.0,10.4,3.7,81.4,32.1,WSW
2005-05-20,7.5,79.0,68.8,1.5,52.0,0.0,5.1,67.5,21.8,WSW
2005-05-21,11.0,76.0,42.5,1.0,42.0,0.0,6.0,57.2,12.6,WSW
2005-05-22,16.2,94.0,20.2,2.7,47.0,0.0,8.5,76.1,9.4,NW
2005-05-23,12.2,95.0,9.0,4.4,69.0,0.0,9.1,90.8,0.5,S
2005-05-24,12.1,98.0,19.4,0.9,39.0,0.0,5.5,77.3,9.9,WNW
2005-05-25,10.9,98.0,27.0,-1.0,59.0,0.0,4.9,82.0,9.4,NW
2005-05-26,17.9,76.0,58.3,3.7,29.0,0.0,11.0,50.4,19.4,NNW
2005-05-27,16.3,79.0,33.1,3.4,35.0,0.0,9.1,60.1,13.3,NNW
2005-05-28,18.7,89.0,42.1,10.1,45.0,0.0,13.9,68.6,8.8,NNW
2005-05-29,16.5,65.0,61.2,4.6,28.0,0.0,11.3,44.6,13.5,WNW
2005-05-30,14.9,64.0,31.7,2.0,28.0,0.0,8.0,44.5,12.5,WNW
2005-05-31,23.4,64.0,40.0,7.4,28.0,0.0,15.0,42.7,11.2,NW
2005-06-01,19.6,78.0,33.1,8.5,33.0,0.0,14.2,48.5,13.9,NW
2005-06-02,16.4,48.0,49.7,8.3,28.0,0.0,12.0,37.6,11.5,WNW
2005-06-03,16.4,51.0,34.6,3.5,25.0,0.0,10.5,36.5,16.1,NNW
2005-06-04,17.7,58.0,42.1,7.5,28.0,0.0,12.9,37.8,6.9,NNW
2005-06-05,18.7,56.0,0.0,8.9,28.0,0.0,13.2,39.4,0.0,NNW
2005-06-06,14.9,85.0,0.0,9.9,31.0,0.0,12.9,46.2,0.0,NW
2005-06-07,13.0,86.0,22.7,0.8,30.0,0.0,7.1,50.0,8.1,W
2005-06-08,11.3,76.0,29.5,-2.3,33.0,0.0,4.9,50.8,15.5,NW
2005-06-09,14.4,49.0,32.4,3.6,27.0,0.0,9.1,37.8,5.1,NNW
2005-06-10,11.6,70.0,46.8,0.8,31.0,0.0,6.4,48.1,10.7,WNW
2005-06-11,14.5,71.0,33.1,3.6,33.0,0.0,8.3,44.8,11.7,NW
2005-06-12,7.9,88.0,42.5,-1.9,30.0,0.0,3.6,54.9,15.8,WNW
2005-06-13,7.7,82.0,34.6,-3.4,31.0,6.5,1.7,51.8,17.3,WNW
2005-06-14,8.3,75.0,30.2,-2.3,43.0,0.0,2.9,51.0,10.7,NW
2005-06-15,12.2,87.0,22.0,-0.8,51.0,0.0,4.9,73.2,6.6,ENE
2005-06-16,10.0,96.0,0.0,6.4,84.0,0.0,8.6,92.4,0.0,ENE
2005-06-17,9.8,96.0,0.0,4.8,91.0,0.0,7.6,92.8,0.0,ENE
2005-06-18,8.3,96.0,0.0,2.0,76.0,0.0,6.4,89.2,0.0,SSW
2005-06-19,6.5,96.0,27.7,0.3,67.0,0.0,3.5,84.2,7.1,SSW
2005-06-20,9.1,98.0,0.0,0.8,68.0,0.0,4.1,91.1,0.0,WNW
2005-06-21,8.4,97.0,0.0,4.1,92.0,0.0,6.7,94.2,0.0,NNE
2005-06-22,12.8,95.0,29.5,4.0,54.0,0.0,8.2,82.5,6.6,WNW
2005-06-23,10.4,98.0,20.9,0.4,85.0,0.0,4.9,94.8,4.6,NW
2005-06-24,14.0,97.0,26.3,2.1,65.0,0.0,7.5,87.2,6.0,WNW
2005-06-25,13.0,92.0,21.2,7.3,59.0,0.0,10.0,77.9,6.2,NNW
2005-06-26,15.2,95.0,0.0,5.4,56.0,0.0,10.7,78.9,0.0,NNW
2005-06-27,15.8,75.0,0.0,7.3,40.0,0.0,11.7,60.0,0.0,NW
2005-06-28,11.6,86.0,0.0,3.4,38.0,0.0,7.3,59.6,0.0,W
2005-06-29,11.1,90.0,24.8,0.7,39.0,0.0,5.2,65.0,9.6,WNW
2005-06-30,8.1,95.0,28.4,0.3,73.0,0.0,4.3,83.9,5.5,WNW
2005-07-01,10.7,96.0,0.0,5.2,91.0,0.0,8.1,94.1,0.0,E
2005-07-02,10.9,96.0,0.0,4.1,77.0,0.0,7.2,90.6,0.0,SSW
2005-07-03,7.1,97.0,31.0,0.4,59.0,0.0,3.5,83.6,10.3,WSW
2005-07-04,8.4,98.0,27.7,-2.7,53.0,8.3,1.9,82.5,15.2,WNW
2005-07-05,7.3,97.0,25.6,-2.3,51.0,0.0,1.6,79.5,13.7,W
2005-07-06,10.6,94.0,43.2,-2.8,30.0,0.0,3.8,62.7,13.1,NNW
2005-07-07,10.1,75.0,0.0,6.3,55.0,0.0,8.2,66.2,0.0,NNW
2005-07-08,15.3,91.0,40.7,5.1,45.0,0.0,9.3,71.1,9.1,NNW
2005-07-09,15.6,94.0,33.1,2.2,38.0,0.0,8.2,67.1,12.3,NNW
2005-07-10,15.5,94.0,45.4,6.7,34.0,0.0,10.5,58.8,12.5,W
2005-07-11,14.5,89.0,28.4,0.8,36.0,0.0,7.8,65.4,8.6,NNE
2005-07-12,16.8,93.0,28.4,8.7,55.0,0.0,11.9,77.2,3.9,NNE
2005-07-13,12.6,96.0,36.4,3.6,64.0,0.0,7.1,85.9,9.0,WNW
2005-07-14,10.2,98.0,28.8,0.9,41.0,0.0,5.2,78.1,8.1,WSW
2005-07-15,9.6,98.0,24.8,-2.8,40.0,0.0,2.8,71.5,9.5,WNW
2005-07-16,12.6,98.0,21.2,-1.2,49.0,0.0,4.5,79.0,11.7,WNW
2005-07-17,9.1,89.0,36.4,1.3,59.0,0.0,5.5,74.6,5.9,SW
2005-07-18,12.7,98.0,22.0,-2.6,36.0,7.2,4.2,71.1,13.5,WNW
2005-07-19,13.4,98.0,15.1,-1.4,42.0,0.0,4.3,85.9,9.7,WNW
2005-07-20,16.5,98.0,18.7,-1.8,33.0,0.0,5.3,77.6,11.0,WNW
2005-07-21,11.3,78.0,24.8,0.9,33.0,0.0,6.7,54.6,6.1,WSW
2005-07-22,13.7,82.0,24.1,-0.6,37.0,6.5,5.1,61.8,13.6,NW
2005-07-23,16.4,91.0,22.0,-0.6,35.0,0.0,6.3,63.5,11.3,WNW
2005-07-24,16.4,95.0,40.7,0.9,34.0,0.0,6.9,72.8,12.8,WNW
2005-07-25,10.1,97.0,0.0,4.1,78.0,0.0,8.0,90.6,0.0,SSE
2005-07-26,12.8,96.0,0.0,2.4,59.0,0.0,7.6,82.6,0.0,NNE
2005-07-27,9.4,97.0,0.0,3.0,72.0,0.0,5.7,89.9,0.0,WSW
2005-07-28,9.4,97.0,0.0,3.7,79.0,0.0,7.9,89.4,0.0,NNW
2005-07-29,20.9,93.0,25.6,7.0,29.0,0.0,12.6,61.5,7.1,NNW
2005-07-30,19.1,75.0,33.8,8.9,32.0,0.0,13.3,50.7,6.1,WNW
2005-07-31,16.3,82.0,34.6,4.0,29.0,0.0,10.2,49.4,11.1,WNW
2005-08-01,12.9,95.0,31.7,1.3,51.0,0.0,7.3,76.8,5.2,NNW
2005-08-02,15.9,89.0,55.1,5.7,30.0,0.0,10.9,48.8,11.5,WNW
2005-08-03,6.4,97.0,21.2,1.7,50.0,0.0,3.9,70.4,9.6,W
2005-08-04,15.0,74.0,34.6,5.4,29.0,0.0,10.2,44.7,8.2,W
2005-08-05,12.4,92.0,23.4,-0.3,29.0,0.0,5.9,55.6,10.6,WNW
2005-08-06,7.0,74.0,24.8,1.6,38.0,0.0,5.0,52.3,6.0,SSW
2005-08-08,11.5,76.0,0.0,8.6,39.0,0.0,9.9,52.0,0.0,NNE
2005-08-09,15.0,47.0,58.3,10.6,32.0,0.0,13.6,35.8,6.3,NNW
2005-08-10,19.2,91.0,21.2,4.6,27.0,0.0,11.1,62.9,7.2,NW
2005-08-11,18.8,98.0,31.7,1.9,35.0,0.0,9.3,74.9,14.7,NNW
2005-08-12,16.6,93.0,0.0,8.2,24.0,0.0,13.2,52.1,0.0,W
2005-08-13,14.4,87.0,18.7,1.1,33.0,0.0,6.7,60.1,6.5,WNW
2005-08-14,13.0,96.0,22.7,-2.4,30.0,0.0,4.4,64.3,11.0,WNW
2005-08-15,14.7,97.0,24.8,-2.3,28.0,0.0,5.5,56.7,11.3,WNW
2005-08-16,11.8,97.0,0.0,4.8,51.0,0.0,8.4,80.0,0.0,NNE
2005-08-17,12.3,91.0,0.0,2.2,26.0,0.0,6.8,54.6,0.0,WNW
2005-08-18,10.4,58.0,34.6,0.6,28.0,0.0,5.7,36.9,13.9,WNW
2005-08-19,12.0,89.0,17.3,-3.7,34.0,0.0,4.5,63.5,7.6,ENE
2005-08-20,11.0,96.0,0.0,6.1,72.0,0.0,8.5,90.4,0.0,ENE
2005-08-21,16.7,95.0,22.7,8.3,74.0,0.0,10.3,92.4,4.9,ENE
2005-08-22,9.8,96.0,0.0,6.2,83.0,0.0,7.8,92.9,0.0,SSE
2005-08-23,8.1,98.0,0.0,2.4,72.0,0.0,6.1,87.6,0.0,SSE
2005-08-24,16.8,98.0,24.8,0.7,47.0,0.0,6.5,87.8,9.9,WNW
2005-08-25,16.4,96.0,41.4,7.6,47.0,0.0,11.7,73.2,4.8,NNW
2005-08-26,17.2,96.0,34.6,7.5,34.0,0.0,11.8,66.0,6.5,WNW
2005-08-27,9.5,97.0,21.2,6.5,93.0,0.0,8.4,94.7,1.8,SSW
2005-08-28,14.5,98.0,0.0,3.0,37.0,0.0,8.6,74.9,0.0,WNW
2005-08-29,8.3,97.0,0.0,2.2,74.0,0.0,6.4,91.4,0.0,S
2005-08-30,9.5,96.0,27.0,1.5,46.0,0.0,5.6,75.1,7.9,WSW
2005-08-31,14.0,98.0,18.7,-1.2,42.0,0.0,5.3,80.3,7.9,WNW
2005-09-01,15.1,98.0,44.6,0.7,36.0,0.0,7.1,75.8,16.4,NNE
2005-09-02,14.0,96.0,39.2,3.6,40.0,0.0,8.7,72.2,4.4,NNE
2005-09-03,10.5,96.0,0.0,8.3,89.0,0.0,9.1,93.4,0.0,NE
2005-09-04,16.7,96.0,0.0,6.1,65.0,0.0,9.7,92.2,0.0,NE
2005-09-05,17.7,96.0,0.0,6.0,51.0,0.0,10.0,86.4,0.0,NNE
2005-09-06,17.3,96.0,0.0,8.2,53.0,0.0,11.0,89.4,0.0,ENE
2005-09-07,18.8,97.0,37.1,7.4,25.0,0.0,13.0,57.3,9.2,WSW
2005-09-08,18.4,82.0,25.6,2.9,25.0,0.0,9.9,46.6,13.1,WNW
2005-09-09,12.0,96.0,11.9,2.1,38.0,0.0,8.4,67.9,0.2,ENE
2005-09-10,8.5,93.0,43.2,0.6,55.0,0.0,5.5,72.3,17.7,SSW
2005-09-11,10.5,87.0,43.9,0.9,44.0,0.0,6.2,69.5,14.9,SW
2005-09-12,11.5,97.0,27.0,0.1,36.0,0.0,5.6,73.4,10.6,W
2005-09-13,19.8,98.0,40.7,0.2,17.0,6.5,11.0,46.9,18.8,NNW
2005-09-14,20.9,48.0,40.0,5.1,22.0,5.0,13.6,28.7,18.8,NNW
2005-09-15,12.4,97.0,22.7,6.6,44.0,0.0,10.0,86.8,9.3,SSW
2005-09-16,23.8,98.0,46.1,4.5,21.0,7.2,13.8,54.5,20.5,NNE
2005-09-17,27.6,70.0,43.9,7.7,15.0,0.0,18.2,33.2,17.9,NW
2005-09-18,21.9,38.0,34.6,14.1,24.0,0.0,17.7,31.0,3.5,NNE
2005-09-19,20.8,95.0,0.0,9.6,32.0,0.0,14.1,50.2,0.0,ENE
2005-09-20,23.6,96.0,35.3,6.1,22.0,0.0,15.0,51.2,14.4,WNW
2005-09-21,26.0,84.0,37.1,5.3,20.0,0.0,14.8,53.7,11.5,WNW
2005-09-22,22.2,87.0,31.7,8.3,28.0,0.0,14.1,51.7,9.8,ENE
2005-09-23,20.3,97.0,30.2,5.8,34.0,0.0,11.6,71.2,7.7,NNW
2005-09-24,15.2,95.0,42.1,5.2,28.0,0.0,9.7,58.3,11.9,ENE
2005-09-25,23.1,79.0,27.0,5.6,25.0,8.3,13.7,51.3,15.4,WNW
2005-09-26,26.0,84.0,31.7,9.5,21.0,0.0,16.0,41.4,14.8,WNW
2005-09-27,30.6,50.0,45.4,12.6,13.0,0.0,20.9,28.0,13.5,NNW
2005-09-28,19.0,96.0,31.7,9.3,23.0,0.0,13.2,55.1,8.4,SSE
2005-09-29,12.4,98.0,26.3,5.4,58.0,0.0,9.8,87.6,5.9,SSE
2005-09-30,9.9,97.0,68.8,5.7,53.0,0.0,8.1,76.0,13.1,SSW
2005-10-01,11.2,94.0,0.0,7.1,70.0,0.0,8.6,83.2,0.0,SSW
2005-10-02,15.8,96.0,0.0,6.9,61.0,0.0,9.9,85.6,0.0,SE
2005-10-03,11.0,96.0,0.0,5.1,57.0,0.0,9.0,79.2,0.0,S
2005-10-04,10.3,95.0,0.0,2.9,55.0,0.0,7.2,77.4,0.0,S
2005-10-05,10.6,96.0,0.0,5.3,67.0,0.0,8.2,82.9,0.0,S
2005-10-06,21.3,98.0,28.8,4.3,23.0,0.0,11.9,67.7,6.4,NE
2005-10-07,19.2,88.0,30.2,10.0,30.0,0.0,13.5,55.3,11.7,ENE
2005-10-08,26.5,59.0,60.5,8.2,23.0,6.5,18.4,35.0,22.1,WNW
2005-10-09,30.6,42.0,42.1,9.6,19.0,5.0,22.9,23.6,19.4,NNE
2005-10-10,25.4,73.0,42.1,15.0,19.0,0.0,19.7,31.7,11.2,WNW
2005-10-11,24.3,75.0,65.2,12.8,22.0,0.0,17.9,40.9,21.0,WNW
2005-10-12,19.7,43.0,68.8,10.1,22.0,0.0,15.1,29.1,27.1,W
2005-10-13,15.6,84.0,62.6,6.4,26.0,0.0,10.7,54.4,5.4,WSW
2005-10-14,18.1,94.0,27.0,5.4,33.0,0.0,10.6,69.9,7.9,SE
2005-10-15,20.4,98.0,50.0,2.9,23.0,0.0,12.0,59.0,14.4,NNE
2005-10-16,22.1,90.0,31.0,9.5,23.0,0.0,14.2,63.2,4.5,NNW
2005-10-17,18.3,85.0,0.0,9.3,37.0,0.0,13.4,59.5,0.0,ENE
2005-10-18,21.2,82.0,46.1,11.7,23.0,0.0,15.3,46.6,3.0,ENE
2005-10-19,27.1,52.0,40.7,14.3,20.0,0.0,20.1,31.4,8.1,NW
2005-10-20,23.5,50.0,29.5,13.1,22.0,0.0,18.5,33.0,11.6,WNW
2005-10-21,19.9,83.0,33.8,10.6,23.0,0.0,14.7,39.9,6.7,WNW
2005-10-22,15.6,97.0,28.4,5.6,45.0,0.0,11.0,69.9,6.4,ENE
2005-10-23,21.7,97.0,31.0,6.4,28.0,0.0,13.5,64.7,5.6,NNE
2005-10-24,17.4,97.0,0.0,9.8,60.0,0.0,12.6,82.8,0.0,SE
2005-10-25,17.6,98.0,20.2,5.2,49.0,0.0,11.4,81.5,5.9,ENE
2005-10-26,17.4,92.0,0.0,8.1,37.0,0.0,11.7,66.3,0.0,ENE
2005-10-27,12.5,97.0,32.4,6.3,70.0,0.0,9.5,83.3,5.0,SW
2005-10-28,14.4,92.0,25.6,5.0,39.0,0.0,9.5,67.2,2.2,SE
2005-10-29,13.7,95.0,0.0,3.0,38.0,0.0,8.6,64.3,0.0,SE
2005-10-31,15.9,83.0,24.1,11.5,56.0,0.0,14.1,74.5,7.2,E
2005-11-01,28.8,87.0,54.4,7.7,19.0,0.0,18.2,48.5,17.6,NNW
2005-11-02,30.6,85.0,41.4,10.6,18.0,0.0,21.9,36.4,18.8,WNW
2005-11-03,20.7,34.0,50.8,10.9,17.0,0.0,17.0,24.5,10.1,W
2005-11-04,18.1,95.0,47.5,7.4,21.0,0.0,11.7,42.7,16.3,WSW
2005-11-05,12.6,95.0,50.0,4.9,36.0,0.0,9.5,64.3,13.3,SW
2005-11-06,15.8,93.0,22.7,2.7,49.0,0.0,6.9,80.1,8.9,WNW
2005-11-07,27.0,95.0,40.7,13.0,20.0,0.0,18.2,57.3,12.6,ENE
2005-11-08,28.0,95.0,50.8,12.3,27.0,0.0,20.0,58.0,19.6,NE
2005-11-09,32.7,95.0,57.6,14.9,22.0,0.0,22.9,50.8,20.9,NNE
2005-11-10,22.2,91.0,27.0,14.5,47.0,0.0,17.7,69.5,2.1,ENE
2005-11-11,19.9,92.0,20.2,11.1,30.0,0.0,15.5,54.6,1.3,SE
2005-11-12,17.8,95.0,23.4,10.6,69.0,0.0,14.0,85.8,7.0,E
2005-11-13,24.4,94.0,34.6,10.6,25.0,0.0,15.7,77.7,7.2,ENE
2005-11-14,25.6,95.0,40.0,13.3,51.0,0.0,16.2,87.7,3.7,NE
2005-11-15,24.3,94.0,38.5,11.2,24.0,0.0,16.8,64.8,14.6,W
2005-11-16,22.4,90.0,0.0,12.1,37.0,0.0,16.4,66.8,0.0,ENE
2005-11-17,22.5,94.0,17.3,13.4,28.0,0.0,17.7,61.9,2.1,ENE
2005-11-18,28.0,37.0,46.8,14.3,19.0,0.0,20.4,28.1,12.5,WNW
2005-11-19,23.4,91.0,64.4,11.3,18.0,0.0,17.9,33.1,28.7,WSW
2005-11-20,27.6,92.0,35.6,9.2,25.0,0.0,16.6,43.4,11.4,SSW
2005-11-21,24.1,94.0,43.2,12.9,36.0,0.0,17.0,71.3,8.5,ENE
2005-11-22,29.0,95.0,50.0,12.6,20.0,0.0,20.3,46.7,12.2,WNW
2005-11-23,21.9,46.0,52.2,12.3,19.0,0.0,16.9,26.8,14.7,WSW
2005-11-24,22.6,91.0,42.1,9.9,24.0,0.0,16.9,32.7,2.5,WNW
2005-11-25,24.6,89.0,50.8,13.8,21.0,0.0,18.4,40.3,3.5,WSW
2005-11-26,31.3,64.0,63.4,10.6,15.0,0.0,20.4,36.1,20.3,WNW
2005-11-27,28.9,52.0,49.0,13.4,16.0,0.0,21.8,28.6,21.1,W
2005-11-28,22.7,92.0,43.9,12.2,17.0,0.0,17.1,35.4,14.8,W
2005-11-29,21.6,84.0,35.3,10.0,23.0,0.0,14.5,43.4,9.8,W
2005-11-30,17.5,92.0,24.8,6.5,49.0,0.0,12.5,66.2,6.2,ENE
2005-12-01,25.6,83.0,59.0,7.8,21.0,0.0,17.1,44.3,22.5,NNW
2005-12-02,32.2,80.0,50.8,17.8,18.0,0.0,25.6,36.7,20.7,NNW
2005-12-03,26.1,60.0,46.8,17.0,17.0,0.0,21.4,27.0,9.0,WSW
2005-12-04,21.2,76.0,53.6,11.8,19.0,0.0,17.3,32.4,7.5,W
2005-12-05,15.6,86.0,46.8,7.0,25.0,0.0,11.2,51.3,10.8,SW
2005-12-06,16.6,81.0,43.9,3.3,24.0,0.0,11.2,46.9,10.9,WSW
2005-12-07,19.3,65.0,45.4,9.6,24.0,0.0,13.3,45.8,8.5,W
2005-12-08,17.0,81.0,0.0,9.9,25.0,0.0,13.7,47.9,0.0,ENE
2005-12-09,15.4,93.0,0.0,9.1,36.0,0.0,12.4,56.4,0.0,S
2005-12-10,24.6,70.0,25.6,9.5,27.0,0.0,16.4,44.0,5.2,WNW
2005-12-12,21.2,94.0,0.0,14.7,65.0,0.0,17.4,83.3,0.0,E
2005-12-13,22.4,94.0,20.2,14.4,44.0,0.0,17.4,86.9,2.8,ENE
2005-12-14,30.8,93.0,37.8,13.8,34.0,0.0,18.4,76.1,6.8,SSE
2005-12-15,16.2,93.0,0.0,10.8,70.0,0.0,14.0,83.7,0.0,SSE
2005-12-16,24.9,95.0,0.0,9.8,41.0,0.0,15.5,76.3,0.0,NNW
2005-12-17,27.8,95.0,35.6,11.7,20.0,0.0,20.0,54.5,8.7,NNW
2005-12-18,20.7,76.0,46.1,14.6,26.0,0.0,18.4,34.6,10.6,WSW
2005-12-19,18.0,93.0,17.3,9.3,51.0,0.0,13.1,73.2,1.8,SE
2005-12-20,27.0,95.0,43.9,8.2,20.0,0.0,16.7,63.1,17.6,NNW
2005-12-21,22.0,95.0,28.8,12.7,33.0,0.0,17.1,65.2,2.8,SE
2005-12-22,24.0,95.0,18.0,11.7,57.0,0.0,16.0,89.2,3.8,ENE
2005-12-23,16.5,95.0,23.4,10.8,50.0,0.0,14.1,78.3,1.3,SSE
2005-12-24,25.0,85.0,18.0,8.2,32.0,0.0,16.0,64.9,6.5,NW
2005-12-25,30.4,93.0,27.7,12.4,21.0,0.0,17.6,75.2,7.4,SSE
2005-12-26,22.3,92.0,0.0,13.9,65.0,0.0,17.2,84.3,0.0,ENE
2005-12-27,18.0,89.0,0.0,15.6,87.0,0.0,16.7,87.9,0.0,ENE
2005-12-28,15.8,92.0,0.0,14.2,81.0,0.0,14.7,87.3,0.0,SSW
2005-12-29,17.3,93.0,0.0,13.5,84.0,0.0,15.1,89.2,0.0,SSW
2005-12-30,22.7,91.0,0.0,14.1,68.0,0.0,16.6,87.2,0.0,ENE
2005-12-31,23.4,92.0,18.0,14.7,66.0,0.0,17.9,87.1,1.6,ENE
